Time,TemperatureF,DewpointF,PressureIn,WindDirection,WindDirectionDegrees,WindSpeedMPH,WindSpeedGustMPH,Humidity,HourlyPrecipIn,Conditions,Clouds,dailyrainin,SoftwareType,DateUTC
2013-05-19 00:04:00,76.3,65.0,29.56,SE,127,7.0,15.0,68,0.00,,---,0.00,VWS V14.01,2013-05-19 05:04:00,
2013-05-19 00:09:00,76.0,64.7,29.56,East,89,10.0,17.0,68,0.00,,---,0.00,VWS V14.01,2013-05-19 05:09:00,
2013-05-19 00:14:00,75.9,65.0,29.56,East,100,7.0,17.0,69,0.00,,---,0.00,VWS V14.01,2013-05-19 05:14:00,
2013-05-19 00:19:00,75.9,65.0,29.56,ENE,71,10.0,17.0,69,0.00,,---,0.00,VWS V14.01,2013-05-19 05:19:00,
2013-05-19 00:24:00,76.3,65.4,29.56,East,80,6.0,17.0,69,0.00,,---,0.00,VWS V14.01,2013-05-19 05:24:00,
2013-05-19 00:29:00,76.7,65.8,29.55,East,91,8.0,17.0,69,0.00,,---,0.00,VWS V14.01,2013-05-19 05:29:00,
2013-05-19 00:34:00,77.1,66.2,29.56,ENE,69,7.0,14.0,69,0.00,,---,0.00,VWS V14.01,2013-05-19 05:34:00,
2013-05-19 00:39:00,77.4,66.0,29.56,ESE,115,12.0,15.0,68,0.00,,---,0.00,VWS V14.01,2013-05-19 05:39:00,
2013-05-19 00:44:00,77.5,66.5,29.56,ESE,105,6.0,15.0,69,0.00,,---,0.00,VWS V14.01,2013-05-19 05:44:00,
2013-05-19 00:50:00,77.8,66.4,29.56,ENE,72,6.0,15.0,68,0.00,,---,0.00,VWS V14.01,2013-05-19 05:50:00,
2013-05-19 00:55:00,77.8,66.4,29.56,SSE,148,4.0,15.0,68,0.00,,---,0.00,VWS V14.01,2013-05-19 05:55:00,
2013-05-19 01:00:00,77.8,67.2,29.56,SE,129,7.0,15.0,70,0.00,,---,0.00,VWS V14.01,2013-05-19 06:00:00,
2013-05-19 01:05:00,79.7,67.8,29.55,SE,127,12.0,18.0,67,0.00,,---,0.00,VWS V14.01,2013-05-19 06:05:00,
2013-05-19 01:10:00,81.0,68.1,29.55,SE,140,16.0,19.0,65,0.00,,---,0.00,VWS V14.01,2013-05-19 06:10:00,
2013-05-19 01:15:00,81.6,67.8,29.55,SSE,150,10.0,20.0,63,0.00,,---,0.00,VWS V14.01,2013-05-19 06:15:00,
2013-05-19 01:20:00,81.8,68.0,29.55,SE,140,17.0,20.0,63,0.00,,---,0.00,VWS V14.01,2013-05-19 06:20:00,
2013-05-19 01:25:00,81.9,68.1,29.54,SSE,148,12.0,20.0,63,0.00,,---,0.00,VWS V14.01,2013-05-19 06:25:00,
2013-05-19 01:30:00,81.8,68.0,29.54,SSE,158,17.0,20.0,63,0.00,,---,0.00,VWS V14.01,2013-05-19 06:30:00,
2013-05-19 01:35:00,81.9,68.1,29.54,SSE,159,19.0,22.0,63,0.00,,---,0.00,VWS V14.01,2013-05-19 06:35:00,
2013-05-19 01:40:00,81.9,67.6,29.54,SE,127,14.0,23.0,62,0.00,,---,0.00,VWS V14.01,2013-05-19 06:40:00,
2013-05-19 01:45:00,81.7,67.9,29.54,SSE,149,15.0,23.0,63,0.00,,---,0.00,VWS V14.01,2013-05-19 06:45:00,
2013-05-19 01:50:00,81.7,67.9,29.54,SE,136,15.0,23.0,63,0.00,,---,0.00,VWS V14.01,2013-05-19 06:50:00,
2013-05-19 01:55:00,81.7,67.9,29.54,SSE,150,11.0,23.0,63,0.00,,---,0.00,VWS V14.01,2013-05-19 06:55:00,
2013-05-19 02:01:00,81.6,67.8,29.54,SSE,159,17.0,23.0,63,0.00,,---,0.00,VWS V14.01,2013-05-19 07:01:00,
2013-05-19 02:06:00,81.6,67.8,29.54,SE,146,8.0,22.0,63,0.00,,---,0.00,VWS V14.01,2013-05-19 07:06:00,
2013-05-19 02:11:00,81.4,67.6,29.54,SSW,193,13.0,22.0,63,0.00,,---,0.00,VWS V14.01,2013-05-19 07:11:00,
2013-05-19 02:16:00,81.4,67.6,29.54,SSE,159,15.0,22.0,63,0.00,,---,0.00,VWS V14.01,2013-05-19 07:16:00,
2013-05-19 02:21:00,81.2,67.9,29.54,SSE,147,14.0,22.0,64,0.00,,---,0.00,VWS V14.01,2013-05-19 07:21:00,
2013-05-19 02:26:00,81.0,67.7,29.53,ESE,110,14.0,23.0,64,0.00,,---,0.00,VWS V14.01,2013-05-19 07:26:00,
2013-05-19 02:31:00,81.0,67.7,29.53,SE,143,21.0,21.0,64,0.00,,---,0.00,VWS V14.01,2013-05-19 07:31:00,
2013-05-19 02:36:00,80.9,67.6,29.53,SSE,163,17.0,27.0,64,0.00,,---,0.00,VWS V14.01,2013-05-19 07:36:00,
2013-05-19 02:41:00,80.8,67.5,29.53,SSE,166,13.0,27.0,64,0.00,,---,0.00,VWS V14.01,2013-05-19 07:41:00,
2013-05-19 02:46:00,80.6,67.8,29.52,SSE,153,16.0,27.0,65,0.00,,---,0.00,VWS V14.01,2013-05-19 07:46:00,
2013-05-19 02:51:00,80.5,67.7,29.52,SSE,153,25.0,27.0,65,0.00,,---,0.00,VWS V14.01,2013-05-19 07:51:00,
2013-05-19 02:56:00,80.4,67.6,29.52,SE,135,15.0,27.0,65,0.00,,---,0.00,VWS V14.01,2013-05-19 07:56:00,
2013-05-19 03:01:00,80.2,67.8,29.52,SSE,148,16.0,24.0,66,0.00,,---,0.00,VWS V14.01,2013-05-19 08:01:00,
2013-05-19 03:06:00,80.1,67.7,29.52,SSE,165,12.0,25.0,66,0.00,,---,0.00,VWS V14.01,2013-05-19 08:06:00,
2013-05-19 03:11:00,80.0,67.6,29.52,SSE,150,13.0,25.0,66,0.00,,---,0.00,VWS V14.01,2013-05-19 08:11:00,
2013-05-19 03:17:00,79.9,67.5,29.51,SSE,148,21.0,25.0,66,0.00,,---,0.00,VWS V14.01,2013-05-19 08:17:00,
2013-05-19 03:22:00,79.9,67.5,29.51,South,176,11.0,25.0,66,0.00,,---,0.00,VWS V14.01,2013-05-19 08:22:00,
2013-05-19 03:27:00,79.8,67.4,29.51,SE,128,20.0,25.0,66,0.00,,---,0.00,VWS V14.01,2013-05-19 08:27:00,
2013-05-19 03:32:00,79.7,67.8,29.51,SE,132,12.0,22.0,67,0.00,,---,0.00,VWS V14.01,2013-05-19 08:32:00,
2013-05-19 03:37:00,79.6,67.7,29.51,SE,135,15.0,23.0,67,0.00,,---,0.00,VWS V14.01,2013-05-19 08:37:00,
2013-05-19 03:42:00,79.4,67.5,29.51,SSE,162,14.0,24.0,67,0.00,,---,0.00,VWS V14.01,2013-05-19 08:42:00,
2013-05-19 03:47:00,79.3,67.4,29.51,SSE,160,20.0,24.0,67,0.00,,---,0.00,VWS V14.01,2013-05-19 08:47:00,
2013-05-19 03:52:00,79.2,67.7,29.51,SSE,148,13.0,24.0,68,0.00,,---,0.00,VWS V14.01,2013-05-19 08:52:00,
2013-05-19 03:57:00,79.0,67.6,29.52,SSE,150,10.0,25.0,68,0.00,,---,0.00,VWS V14.01,2013-05-19 08:57:00,
2013-05-19 04:02:00,78.8,67.4,29.52,South,177,20.0,21.0,68,0.00,,---,0.00,VWS V14.01,2013-05-19 09:02:00,
2013-05-19 04:07:00,78.6,67.6,29.52,SSE,149,14.0,21.0,69,0.00,,---,0.00,VWS V14.01,2013-05-19 09:07:00,
2013-05-19 04:12:00,78.5,67.5,29.52,SSE,148,9.0,21.0,69,0.00,,---,0.00,VWS V14.01,2013-05-19 09:12:00,
2013-05-19 04:17:00,78.3,67.7,29.52,SSE,156,13.0,21.0,70,0.00,,---,0.00,VWS V14.01,2013-05-19 09:17:00,
2013-05-19 04:22:00,78.3,67.7,29.52,SE,133,12.0,21.0,70,0.00,,---,0.00,VWS V14.01,2013-05-19 09:22:00,
2013-05-19 04:27:00,78.1,67.5,29.52,SE,134,16.0,21.0,70,0.00,,---,0.00,VWS V14.01,2013-05-19 09:27:00,
2013-05-19 04:32:00,78.0,67.4,29.52,SSE,165,10.0,17.0,70,0.00,,---,0.00,VWS V14.01,2013-05-19 09:32:00,
2013-05-19 04:38:00,77.9,67.3,29.52,SSE,167,13.0,21.0,70,0.00,,---,0.00,VWS V14.01,2013-05-19 09:38:00,
2013-05-19 04:43:00,77.7,67.6,29.52,South,169,13.0,21.0,71,0.00,,---,0.00,VWS V14.01,2013-05-19 09:43:00,
2013-05-19 04:48:00,77.5,67.4,29.52,SSE,162,15.0,21.0,71,0.00,,---,0.00,VWS V14.01,2013-05-19 09:48:00,
2013-05-19 04:53:00,77.4,67.7,29.52,SE,146,17.0,21.0,72,0.00,,---,0.00,VWS V14.01,2013-05-19 09:53:00,
2013-05-19 04:58:00,77.3,67.6,29.52,South,177,11.0,21.0,72,0.00,,---,0.00,VWS V14.01,2013-05-19 09:58:00,
2013-05-19 05:03:00,77.2,67.5,29.52,SSE,159,16.0,16.0,72,0.00,,---,0.00,VWS V14.01,2013-05-19 10:03:00,
2013-05-19 05:08:00,77.0,67.3,29.52,SSE,166,18.0,20.0,72,0.00,,---,0.00,VWS V14.01,2013-05-19 10:08:00,
2013-05-19 05:13:00,76.9,67.6,29.52,SSE,152,15.0,20.0,73,0.00,,---,0.00,VWS V14.01,2013-05-19 10:13:00,
2013-05-19 05:18:00,76.8,67.5,29.52,SE,140,11.0,20.0,73,0.00,,---,0.00,VWS V14.01,2013-05-19 10:18:00,
2013-05-19 05:23:00,76.8,67.5,29.51,SE,144,14.0,23.0,73,0.00,,---,0.00,VWS V14.01,2013-05-19 10:23:00,
2013-05-19 05:28:00,76.7,67.4,29.51,SSE,153,11.0,23.0,73,0.00,,---,0.00,VWS V14.01,2013-05-19 10:28:00,
2013-05-19 05:33:00,76.7,67.4,29.52,SSE,168,12.0,20.0,73,0.00,,---,0.00,VWS V14.01,2013-05-19 10:33:00,
2013-05-19 05:38:00,76.7,67.4,29.51,SSE,155,14.0,27.0,73,0.00,,---,0.00,VWS V14.01,2013-05-19 10:38:00,
2013-05-19 05:43:00,76.6,67.3,29.51,SSE,160,12.0,27.0,73,0.00,,---,0.00,VWS V14.01,2013-05-19 10:43:00,
2013-05-19 05:48:00,76.6,67.3,29.51,SE,130,13.0,27.0,73,0.00,,---,0.00,VWS V14.01,2013-05-19 10:48:00,
2013-05-19 05:54:00,76.5,67.2,29.51,South,181,9.0,27.0,73,0.00,,---,0.00,VWS V14.01,2013-05-19 10:54:00,
2013-05-19 05:59:00,76.4,67.1,29.51,SSE,153,15.0,27.0,73,0.00,,---,0.00,VWS V14.01,2013-05-19 10:59:00,
2013-05-19 06:04:00,76.4,67.1,29.51,SSE,147,14.0,18.0,73,0.00,,---,0.00,VWS V14.01,2013-05-19 11:04:00,
2013-05-19 06:09:00,76.2,67.3,29.51,SSE,159,7.0,21.0,74,0.00,,---,0.00,VWS V14.01,2013-05-19 11:09:00,
2013-05-19 06:14:00,76.2,67.3,29.51,South,174,10.0,21.0,74,0.00,,---,0.00,VWS V14.01,2013-05-19 11:14:00,
2013-05-19 06:19:00,76.1,67.2,29.51,SSE,165,9.0,21.0,74,0.00,,---,0.00,VWS V14.01,2013-05-19 11:19:00,
2013-05-19 06:24:00,76.0,67.1,29.51,SSE,158,13.0,21.0,74,0.00,,---,0.00,VWS V14.01,2013-05-19 11:24:00,
2013-05-19 06:29:00,75.8,67.3,29.52,SE,145,11.0,21.0,75,0.00,,---,0.00,VWS V14.01,2013-05-19 11:29:00,
2013-05-19 06:34:00,75.7,67.2,29.52,SSE,155,9.0,16.0,75,0.00,,---,0.00,VWS V14.01,2013-05-19 11:34:00,
2013-05-19 06:39:00,75.6,67.1,29.52,SSE,168,8.0,16.0,75,0.00,,---,0.00,VWS V14.01,2013-05-19 11:39:00,
2013-05-19 06:44:00,75.5,67.0,29.52,SSE,150,13.0,16.0,75,0.00,,---,0.00,VWS V14.01,2013-05-19 11:44:00,
2013-05-19 06:49:00,75.4,66.9,29.52,SE,146,8.0,17.0,75,0.00,,---,0.00,VWS V14.01,2013-05-19 11:49:00,
2013-05-19 06:54:00,75.2,67.1,29.52,SSE,155,8.0,17.0,76,0.00,,---,0.00,VWS V14.01,2013-05-19 11:54:00,
2013-05-19 06:59:00,75.1,67.0,29.52,SSE,162,8.0,17.0,76,0.00,,---,0.00,VWS V14.01,2013-05-19 11:59:00,
2013-05-19 07:05:00,75.0,66.9,29.52,South,176,10.0,17.0,76,0.00,,---,0.00,VWS V14.01,2013-05-19 12:05:00,
2013-05-19 07:10:00,75.0,66.9,29.52,SSE,158,9.0,17.0,76,0.00,,---,0.00,VWS V14.01,2013-05-19 12:10:00,
2013-05-19 07:15:00,75.0,66.9,29.53,SE,136,13.0,17.0,76,0.00,,---,0.00,VWS V14.01,2013-05-19 12:15:00,
2013-05-19 07:20:00,75.2,67.1,29.53,South,176,11.0,20.0,76,0.00,,---,0.00,VWS V14.01,2013-05-19 12:20:00,
2013-05-19 07:25:00,75.3,67.2,29.53,SE,146,11.0,20.0,76,0.00,,---,0.00,VWS V14.01,2013-05-19 12:25:00,
2013-05-19 07:30:00,75.4,66.9,29.53,SE,124,7.0,20.0,75,0.00,,---,0.00,VWS V14.01,2013-05-19 12:30:00,
2013-05-19 07:35:00,75.6,67.1,29.53,SSE,155,9.0,17.0,75,0.00,,---,0.00,VWS V14.01,2013-05-19 12:35:00,
2013-05-19 07:40:00,75.9,67.4,29.53,SE,145,8.0,18.0,75,0.00,,---,0.00,VWS V14.01,2013-05-19 12:40:00,
2013-05-19 07:45:00,76.1,67.2,29.53,SSE,152,8.0,19.0,74,0.00,,---,0.00,VWS V14.01,2013-05-19 12:45:00,
2013-05-19 07:50:00,76.3,67.4,29.53,South,176,7.0,19.0,74,0.00,,---,0.00,VWS V14.01,2013-05-19 12:50:00,
2013-05-19 07:55:00,76.6,67.7,29.53,South,172,8.0,20.0,74,0.00,,---,0.00,VWS V14.01,2013-05-19 12:55:00,
2013-05-19 08:00:00,76.9,67.6,29.54,South,180,10.0,20.0,73,0.00,,---,0.00,VWS V14.01,2013-05-19 13:00:00,
2013-05-19 08:05:00,77.2,67.5,29.53,SSE,163,9.0,18.0,72,0.00,,---,0.00,VWS V14.01,2013-05-19 13:05:00,
2013-05-19 08:11:00,77.5,67.8,29.53,South,181,14.0,18.0,72,0.00,,---,0.00,VWS V14.01,2013-05-19 13:11:00,
2013-05-19 08:16:00,78.0,68.2,29.53,SE,146,18.0,19.0,72,0.00,,---,0.00,VWS V14.01,2013-05-19 13:16:00,
2013-05-19 08:21:00,78.3,68.1,29.53,SSW,208,7.0,21.0,71,0.00,,---,0.00,VWS V14.01,2013-05-19 13:21:00,
2013-05-19 08:26:00,78.7,68.1,29.53,South,176,12.0,21.0,70,0.00,,---,0.00,VWS V14.01,2013-05-19 13:26:00,
2013-05-19 08:31:00,79.0,68.0,29.53,SSE,162,12.0,13.0,69,0.00,,---,0.00,VWS V14.01,2013-05-19 13:31:00,
2013-05-19 08:36:00,79.3,68.3,29.53,South,181,18.0,18.0,69,0.00,,---,0.00,VWS V14.01,2013-05-19 13:36:00,
2013-05-19 08:41:00,79.7,68.6,29.53,SSW,201,10.0,19.0,69,0.00,,---,0.00,VWS V14.01,2013-05-19 13:41:00,
2013-05-19 08:46:00,80.2,68.7,29.53,SSE,156,8.0,19.0,68,0.00,,---,0.00,VWS V14.01,2013-05-19 13:46:00,
2013-05-19 08:51:00,80.6,69.1,29.53,SSE,158,11.0,19.0,68,0.00,,---,0.00,VWS V14.01,2013-05-19 13:51:00,
2013-05-19 08:56:00,81.0,69.0,29.53,SE,131,17.0,20.0,67,0.00,,---,0.00,VWS V14.01,2013-05-19 13:56:00,
2013-05-19 09:01:00,81.2,69.2,29.53,SSW,208,11.0,15.0,67,0.00,,---,0.00,VWS V14.01,2013-05-19 14:01:00,
2013-05-19 09:06:00,81.6,69.2,29.52,SSW,204,10.0,20.0,66,0.00,,---,0.00,VWS V14.01,2013-05-19 14:06:00,
2013-05-19 09:11:00,82.1,69.2,29.52,SE,136,15.0,20.0,65,0.00,,---,0.00,VWS V14.01,2013-05-19 14:11:00,
2013-05-19 09:16:00,82.6,69.7,29.53,ESE,121,12.0,20.0,65,0.00,,---,0.00,VWS V14.01,2013-05-19 14:16:00,
2013-05-19 09:21:00,83.0,69.6,29.53,SSE,150,13.0,20.0,64,0.00,,---,0.00,VWS V14.01,2013-05-19 14:21:00,
2013-05-19 09:27:00,83.4,69.5,29.53,SSE,148,9.0,25.0,63,0.00,,---,0.00,VWS V14.01,2013-05-19 14:27:00,
2013-05-19 09:32:00,83.7,69.3,29.52,SSW,211,7.0,18.0,62,0.00,,---,0.00,VWS V14.01,2013-05-19 14:32:00,
2013-05-19 09:37:00,83.9,69.5,29.52,SSW,198,9.0,22.0,62,0.00,,---,0.00,VWS V14.01,2013-05-19 14:37:00,
2013-05-19 09:42:00,84.3,68.9,29.52,South,186,8.0,22.0,60,0.00,,---,0.00,VWS V14.01,2013-05-19 14:42:00,
2013-05-19 09:47:00,84.7,68.8,29.52,SSW,198,14.0,23.0,59,0.00,,---,0.00,VWS V14.01,2013-05-19 14:47:00,
2013-05-19 09:52:00,85.1,68.7,29.52,SW,218,20.0,23.0,58,0.00,,---,0.00,VWS V14.01,2013-05-19 14:52:00,
2013-05-19 09:57:00,85.3,67.8,29.52,SSW,197,17.0,25.0,56,0.00,,---,0.00,VWS V14.01,2013-05-19 14:57:00,
2013-05-19 10:02:00,85.7,67.2,29.52,SSW,201,20.0,21.0,54,0.00,,---,0.00,VWS V14.01,2013-05-19 15:02:00,
2013-05-19 10:07:00,85.9,67.9,29.52,SSW,201,12.0,23.0,55,0.00,,---,0.00,VWS V14.01,2013-05-19 15:07:00,
2013-05-19 10:12:00,86.6,67.4,29.52,South,190,17.0,23.0,53,0.00,,---,0.00,VWS V14.01,2013-05-19 15:12:00,
2013-05-19 10:17:00,87.0,67.8,29.52,SSE,167,15.0,23.0,53,0.00,,---,0.00,VWS V14.01,2013-05-19 15:17:00,
2013-05-19 10:22:00,87.3,67.5,29.52,SSW,205,11.0,23.0,52,0.00,,---,0.00,VWS V14.01,2013-05-19 15:22:00,
2013-05-19 10:27:00,87.9,65.8,29.52,SSW,208,11.0,23.0,48,0.00,,---,0.00,VWS V14.01,2013-05-19 15:27:00,
2013-05-19 10:33:00,88.4,66.2,29.52,SSW,210,17.0,20.0,48,0.00,,---,0.00,VWS V14.01,2013-05-19 15:33:00,
2013-05-19 10:38:00,88.7,64.0,29.52,SSW,211,15.0,22.0,44,0.00,,---,0.00,VWS V14.01,2013-05-19 15:38:00,
2013-05-19 10:43:00,89.0,64.9,29.52,SSE,158,13.0,22.0,45,0.00,,---,0.00,VWS V14.01,2013-05-19 15:43:00,
2013-05-19 10:48:00,89.5,64.7,29.52,South,184,9.0,22.0,44,0.00,,---,0.00,VWS V14.01,2013-05-19 15:48:00,
2013-05-19 10:53:00,89.8,62.3,29.52,South,180,13.0,22.0,40,0.00,,---,0.00,VWS V14.01,2013-05-19 15:53:00,
2013-05-19 10:58:00,89.9,61.7,29.52,SSW,205,16.0,28.0,39,0.00,,---,0.00,VWS V14.01,2013-05-19 15:58:00,
2013-05-19 11:03:00,90.2,61.9,29.52,West,272,11.0,17.0,39,0.00,,---,0.00,VWS V14.01,2013-05-19 16:03:00,
2013-05-19 11:08:00,90.5,62.2,29.52,SW,229,17.0,23.0,39,0.00,,---,0.00,VWS V14.01,2013-05-19 16:08:00,
2013-05-19 11:13:00,90.9,61.0,29.52,SW,219,12.0,23.0,37,0.00,,---,0.00,VWS V14.01,2013-05-19 16:13:00,
2013-05-19 11:18:00,91.1,60.5,29.52,WSW,248,16.0,23.0,36,0.00,,---,0.00,VWS V14.01,2013-05-19 16:18:00,
2013-05-19 11:23:00,91.3,59.0,29.52,SW,227,12.0,23.0,34,0.00,,---,0.00,VWS V14.01,2013-05-19 16:23:00,
2013-05-19 11:28:00,91.5,58.4,29.52,SE,138,4.0,23.0,33,0.00,,---,0.00,VWS V14.01,2013-05-19 16:28:00,
2013-05-19 11:33:00,91.8,56.9,29.52,SW,226,15.0,19.0,31,0.00,,---,0.00,VWS V14.01,2013-05-19 16:33:00,
2013-05-19 11:38:00,91.9,56.1,29.52,SW,233,8.0,20.0,30,0.00,,---,0.00,VWS V14.01,2013-05-19 16:38:00,
2013-05-19 11:44:00,92.4,55.6,29.52,WSW,252,20.0,20.0,29,0.00,,---,0.00,VWS V14.01,2013-05-19 16:44:00,
2013-05-19 11:49:00,92.2,54.4,29.52,South,177,7.0,21.0,28,0.00,,---,0.00,VWS V14.01,2013-05-19 16:49:00,
2013-05-19 11:54:00,92.4,49.3,29.52,SSW,194,8.0,21.0,23,0.00,,---,0.00,VWS V14.01,2013-05-19 16:54:00,
2013-05-19 11:59:00,92.2,46.7,29.52,SW,226,7.0,23.0,21,0.00,,---,0.00,VWS V14.01,2013-05-19 16:59:00,
2013-05-19 12:04:00,92.6,45.7,29.52,SW,226,9.0,19.0,20,0.00,,---,0.00,VWS V14.01,2013-05-19 17:04:00,
2013-05-19 12:09:00,92.7,44.5,29.52,WSW,242,12.0,20.0,19,0.00,,---,0.00,VWS V14.01,2013-05-19 17:09:00,
2013-05-19 12:14:00,92.9,44.6,29.52,SSW,198,13.0,20.0,19,0.00,,---,0.00,VWS V14.01,2013-05-19 17:14:00,
2013-05-19 12:19:00,93.5,42.2,29.52,South,179,5.0,20.0,17,0.00,,---,0.00,VWS V14.01,2013-05-19 17:19:00,
2013-05-19 12:24:00,93.9,41.0,29.51,West,263,10.0,20.0,16,0.00,,---,0.00,VWS V14.01,2013-05-19 17:24:00,
2013-05-19 12:29:00,93.7,40.8,29.51,SW,214,8.0,20.0,16,0.00,,---,0.00,VWS V14.01,2013-05-19 17:29:00,
2013-05-19 12:34:00,94.0,41.0,29.51,WSW,250,9.0,15.0,16,0.00,,---,0.00,VWS V14.01,2013-05-19 17:34:00,
2013-05-19 12:39:00,94.2,41.2,29.52,WSW,253,9.0,19.0,16,0.00,,---,0.00,VWS V14.01,2013-05-19 17:39:00,
2013-05-19 12:44:00,94.5,38.0,29.52,SW,231,12.0,19.0,14,0.00,,---,0.00,VWS V14.01,2013-05-19 17:44:00,
2013-05-19 12:50:00,94.5,39.8,29.51,WSW,249,11.0,19.0,15,0.00,,---,0.00,VWS V14.01,2013-05-19 17:50:00,
2013-05-19 12:55:00,94.6,36.2,29.51,WSW,250,11.0,19.0,13,0.00,,---,0.00,VWS V14.01,2013-05-19 17:55:00,
2013-05-19 13:00:00,94.5,38.0,29.51,WSW,252,9.0,19.0,14,0.00,,---,0.00,VWS V14.01,2013-05-19 18:00:00,
2013-05-19 13:05:00,94.7,38.2,29.51,WSW,253,12.0,17.0,14,0.00,,---,0.00,VWS V14.01,2013-05-19 18:05:00,
2013-05-19 13:10:00,94.6,38.1,29.51,West,266,7.0,17.0,14,0.00,,---,0.00,VWS V14.01,2013-05-19 18:10:00,
2013-05-19 13:15:00,94.7,36.3,29.51,West,274,8.0,18.0,13,0.00,,---,0.00,VWS V14.01,2013-05-19 18:15:00,
2013-05-19 13:20:00,95.2,34.7,29.50,WSW,243,17.0,18.0,12,0.00,,---,0.00,VWS V14.01,2013-05-19 18:20:00,
2013-05-19 13:25:00,95.4,34.8,29.50,West,265,11.0,21.0,12,0.00,,---,0.00,VWS V14.01,2013-05-19 18:25:00,
2013-05-19 13:30:00,95.6,37.0,29.50,SSW,208,9.0,21.0,13,0.00,,---,0.00,VWS V14.01,2013-05-19 18:30:00,
2013-05-19 13:35:00,96.1,33.2,29.50,WSW,245,11.0,24.0,11,0.00,,---,0.00,VWS V14.01,2013-05-19 18:35:00,
2013-05-19 13:40:00,96.6,33.5,29.50,SW,218,8.0,24.0,11,0.00,,---,0.00,VWS V14.01,2013-05-19 18:40:00,
2013-05-19 13:45:00,97.0,33.8,29.49,SW,218,18.0,24.0,11,0.00,,---,0.00,VWS V14.01,2013-05-19 18:45:00,
2013-05-19 13:50:00,97.5,36.4,29.49,WSW,241,15.0,24.0,12,0.00,,---,0.00,VWS V14.01,2013-05-19 18:50:00,
2013-05-19 13:56:00,97.5,34.2,29.49,West,268,12.0,24.0,11,0.00,,---,0.00,VWS V14.01,2013-05-19 18:56:00,
2013-05-19 14:01:00,97.3,34.1,29.49,SE,142,3.0,6.0,11,0.00,,---,0.00,VWS V14.01,2013-05-19 19:01:00,
2013-05-19 14:06:00,97.6,31.9,29.49,West,259,9.0,18.0,10,0.00,,---,0.00,VWS V14.01,2013-05-19 19:06:00,
2013-05-19 14:11:00,98.4,32.5,29.48,SW,233,18.0,22.0,10,0.00,,---,0.00,VWS V14.01,2013-05-19 19:11:00,
2013-05-19 14:16:00,98.5,32.6,29.48,SSW,202,13.0,23.0,10,0.00,,---,0.00,VWS V14.01,2013-05-19 19:16:00,
2013-05-19 14:21:00,98.0,32.2,29.48,SSW,203,17.0,27.0,10,0.00,,---,0.00,VWS V14.01,2013-05-19 19:21:00,
2013-05-19 14:26:00,98.3,32.5,29.48,SSW,198,15.0,27.0,10,0.00,,---,0.00,VWS V14.01,2013-05-19 19:26:00,
2013-05-19 14:31:00,98.7,30.2,29.47,SSW,209,10.0,21.0,9,0.00,,---,0.00,VWS V14.01,2013-05-19 19:31:00,
2013-05-19 14:36:00,98.4,29.9,29.48,SW,224,8.0,22.0,9,0.00,,---,0.00,VWS V14.01,2013-05-19 19:36:00,
2013-05-19 14:41:00,98.3,32.5,29.47,WSW,247,13.0,22.0,10,0.00,,---,0.00,VWS V14.01,2013-05-19 19:41:00,
2013-05-19 14:46:00,98.5,32.6,29.47,South,191,10.0,24.0,10,0.00,,---,0.00,VWS V14.01,2013-05-19 19:46:00,
2013-05-19 14:51:00,98.7,32.8,29.47,South,174,15.0,26.0,10,0.00,,---,0.00,VWS V14.01,2013-05-19 19:51:00,
2013-05-19 14:56:00,98.9,30.3,29.47,WSW,250,10.0,26.0,9,0.00,,---,0.00,VWS V14.01,2013-05-19 19:56:00,
2013-05-19 15:02:00,99.0,33.0,29.47,SW,224,12.0,18.0,10,0.00,,---,0.00,VWS V14.01,2013-05-19 20:02:00,
2013-05-19 15:07:00,98.5,32.6,29.47,SSW,203,9.0,23.0,10,0.00,,---,0.00,VWS V14.01,2013-05-19 20:07:00,
2013-05-19 15:12:00,99.0,33.0,29.47,South,188,22.0,23.0,10,0.00,,---,0.00,VWS V14.01,2013-05-19 20:12:00,
2013-05-19 15:17:00,99.3,30.6,29.46,SSW,193,16.0,23.0,9,0.00,,---,0.00,VWS V14.01,2013-05-19 20:17:00,
2013-05-19 15:22:00,99.4,30.7,29.46,South,173,12.0,24.0,9,0.00,,---,0.00,VWS V14.01,2013-05-19 20:22:00,
2013-05-19 15:27:00,99.6,30.8,29.46,WSW,256,12.0,25.0,9,0.00,,---,0.00,VWS V14.01,2013-05-19 20:27:00,
2013-05-19 15:32:00,98.9,30.3,29.45,WSW,255,13.0,19.0,9,0.00,,---,0.00,VWS V14.01,2013-05-19 20:32:00,
2013-05-19 15:37:00,99.4,30.7,29.46,West,266,8.0,27.0,9,0.00,,---,0.00,VWS V14.01,2013-05-19 20:37:00,
2013-05-19 15:42:00,99.8,31.0,29.45,West,280,10.0,27.0,9,0.00,,---,0.00,VWS V14.01,2013-05-19 20:42:00,
2013-05-19 15:47:00,99.7,30.9,29.46,SSW,208,12.0,27.0,9,0.00,,---,0.00,VWS V14.01,2013-05-19 20:47:00,
2013-05-19 15:52:00,99.5,30.8,29.45,WSW,256,10.0,27.0,9,0.00,,---,0.00,VWS V14.01,2013-05-19 20:52:00,
2013-05-19 15:57:00,99.0,27.5,29.45,SW,215,21.0,33.0,8,0.00,,---,0.00,VWS V14.01,2013-05-19 20:57:00,
2013-05-19 16:02:00,99.2,27.6,29.45,South,170,14.0,25.0,8,0.00,,---,0.00,VWS V14.01,2013-05-19 21:02:00,
2013-05-19 16:07:00,99.3,27.7,29.45,WSW,256,21.0,29.0,8,0.00,,---,0.00,VWS V14.01,2013-05-19 21:07:00,
2013-05-19 16:13:00,99.1,27.6,29.45,WSW,243,14.0,29.0,8,0.00,,---,0.00,VWS V14.01,2013-05-19 21:13:00,
2013-05-19 16:18:00,99.1,27.6,29.45,South,183,7.0,29.0,8,0.00,,---,0.00,VWS V14.01,2013-05-19 21:18:00,
2013-05-19 16:23:00,99.2,30.5,29.45,West,259,9.0,29.0,9,0.00,,---,0.00,VWS V14.01,2013-05-19 21:23:00,
2013-05-19 16:28:00,99.6,27.9,29.44,SW,235,12.0,29.0,8,0.00,,---,0.00,VWS V14.01,2013-05-19 21:28:00,
2013-05-19 16:33:00,99.6,27.9,29.44,South,190,20.0,26.0,8,0.00,,---,0.00,VWS V14.01,2013-05-19 21:33:00,
2013-05-19 16:38:00,99.4,27.8,29.44,SSW,203,22.0,30.0,8,0.00,,---,0.00,VWS V14.01,2013-05-19 21:38:00,
2013-05-19 16:43:00,99.3,27.7,29.44,SSW,212,12.0,30.0,8,0.00,,---,0.00,VWS V14.01,2013-05-19 21:43:00,
2013-05-19 16:48:00,99.5,27.9,29.44,SW,219,17.0,30.0,8,0.00,,---,0.00,VWS V14.01,2013-05-19 21:48:00,
2013-05-19 16:53:00,99.4,27.8,29.44,SSW,212,15.0,30.0,8,0.00,,---,0.00,VWS V14.01,2013-05-19 21:53:00,
2013-05-19 16:58:00,99.2,30.5,29.43,SSW,203,9.0,30.0,9,0.00,,---,0.00,VWS V14.01,2013-05-19 21:58:00,
2013-05-19 17:03:00,99.4,27.8,29.43,WSW,246,11.0,22.0,8,0.00,,---,0.00,VWS V14.01,2013-05-19 22:03:00,
2013-05-19 17:08:00,99.4,30.7,29.43,SSW,208,18.0,22.0,9,0.00,,---,0.00,VWS V14.01,2013-05-19 22:08:00,
2013-05-19 17:13:00,99.5,30.8,29.43,SSW,208,14.0,25.0,9,0.00,,---,0.00,VWS V14.01,2013-05-19 22:13:00,
2013-05-19 17:18:00,99.3,27.7,29.43,WSW,242,13.0,25.0,8,0.00,,---,0.00,VWS V14.01,2013-05-19 22:18:00,
2013-05-19 17:24:00,99.3,27.7,29.43,South,180,17.0,25.0,8,0.00,,---,0.00,VWS V14.01,2013-05-19 22:24:00,
2013-05-19 17:29:00,99.5,27.9,29.42,WSW,246,14.0,25.0,8,0.00,,---,0.00,VWS V14.01,2013-05-19 22:29:00,
2013-05-19 17:34:00,99.7,30.9,29.42,SSW,206,13.0,19.0,9,0.00,,---,0.00,VWS V14.01,2013-05-19 22:34:00,
2013-05-19 17:39:00,99.8,31.0,29.42,West,259,16.0,24.0,9,0.00,,---,0.00,VWS V14.01,2013-05-19 22:39:00,
2013-05-19 17:44:00,99.6,27.9,29.42,WSW,239,15.0,26.0,8,0.00,,---,0.00,VWS V14.01,2013-05-19 22:44:00,
2013-05-19 17:49:00,99.6,27.9,29.42,SW,214,23.0,26.0,8,0.00,,---,0.00,VWS V14.01,2013-05-19 22:49:00,
2013-05-19 17:54:00,99.6,30.8,29.42,South,191,16.0,26.0,9,0.00,,---,0.00,VWS V14.01,2013-05-19 22:54:00,
2013-05-19 17:59:00,99.4,27.8,29.42,SW,229,22.0,27.0,8,0.00,,---,0.00,VWS V14.01,2013-05-19 22:59:00,
2013-05-19 18:04:00,99.2,30.5,29.43,WSW,257,16.0,21.0,9,0.00,,---,0.00,VWS V14.01,2013-05-19 23:04:00,
2013-05-19 18:09:00,98.7,30.2,29.42,SW,223,9.0,21.0,9,0.00,,---,0.00,VWS V14.01,2013-05-19 23:09:00,
2013-05-19 18:14:00,98.7,27.3,29.42,WSW,240,10.0,21.0,8,0.00,,---,0.00,VWS V14.01,2013-05-19 23:14:00,
2013-05-19 18:19:00,98.6,27.2,29.42,WNW,291,11.0,21.0,8,0.00,,---,0.00,VWS V14.01,2013-05-19 23:19:00,
2013-05-19 18:24:00,98.3,27.0,29.42,West,265,15.0,25.0,8,0.00,,---,0.00,VWS V14.01,2013-05-19 23:24:00,
2013-05-19 18:29:00,98.0,26.8,29.42,West,260,11.0,25.0,8,0.00,,---,0.00,VWS V14.01,2013-05-19 23:29:00,
2013-05-19 18:35:00,98.0,29.6,29.43,SW,232,17.0,21.0,9,0.00,,---,0.00,VWS V14.01,2013-05-19 23:35:00,
2013-05-19 18:40:00,97.8,26.6,29.42,West,260,17.0,22.0,8,0.00,,---,0.00,VWS V14.01,2013-05-19 23:40:00,
2013-05-19 18:45:00,97.7,29.4,29.43,West,263,16.0,23.0,9,0.00,,---,0.00,VWS V14.01,2013-05-19 23:45:00,
2013-05-19 18:50:00,97.6,29.3,29.43,WSW,248,9.0,24.0,9,0.00,,---,0.00,VWS V14.01,2013-05-19 23:50:00,
2013-05-19 18:55:00,97.5,29.3,29.43,WSW,245,21.0,24.0,9,0.00,,---,0.00,VWS V14.01,2013-05-19 23:55:00,
2013-05-19 19:00:00,97.1,29.0,29.43,West,269,14.0,24.0,9,0.00,,---,0.00,VWS V14.01,2013-05-20 00:00:00,
2013-05-19 19:05:00,96.9,31.4,29.43,West,264,10.0,19.0,10,0.00,,---,0.00,VWS V14.01,2013-05-20 00:05:00,
2013-05-19 19:10:00,96.6,31.2,29.44,West,267,12.0,19.0,10,0.00,,---,0.00,VWS V14.01,2013-05-20 00:10:00,
2013-05-19 19:15:00,96.5,31.1,29.44,West,271,11.0,19.0,10,0.00,,---,0.00,VWS V14.01,2013-05-20 00:15:00,
2013-05-19 19:20:00,96.2,33.2,29.44,WSW,249,11.0,19.0,11,0.00,,---,0.00,VWS V14.01,2013-05-20 00:20:00,
2013-05-19 19:25:00,96.0,30.7,29.44,WSW,245,8.0,19.0,10,0.00,,---,0.00,VWS V14.01,2013-05-20 00:25:00,
2013-05-19 19:30:00,95.7,32.9,29.45,West,276,7.0,19.0,11,0.00,,---,0.00,VWS V14.01,2013-05-20 00:30:00,
2013-05-19 19:36:00,95.3,32.5,29.45,WSW,243,12.0,14.0,11,0.00,,---,0.00,VWS V14.01,2013-05-20 00:36:00,
2013-05-19 19:41:00,95.0,34.5,29.45,WSW,250,6.0,14.0,12,0.00,,---,0.00,VWS V14.01,2013-05-20 00:41:00,
2013-05-19 19:46:00,94.5,34.1,29.45,SW,234,7.0,14.0,12,0.00,,---,0.00,VWS V14.01,2013-05-20 00:46:00,
2013-05-19 19:51:00,93.9,33.6,29.45,WSW,244,10.0,14.0,12,0.00,,---,0.00,VWS V14.01,2013-05-20 00:51:00,
2013-05-19 19:56:00,93.5,35.3,29.46,SW,221,10.0,14.0,13,0.00,,---,0.00,VWS V14.01,2013-05-20 00:56:00,
2013-05-19 20:01:00,92.9,34.9,29.46,SW,236,5.0,8.0,13,0.00,,---,0.00,VWS V14.01,2013-05-20 01:01:00,
2013-05-19 20:06:00,92.0,36.0,29.46,SW,228,4.0,10.0,14,0.00,,---,0.00,VWS V14.01,2013-05-20 01:06:00,
2013-05-19 20:11:00,91.0,37.0,29.46,SW,224,2.0,10.0,15,0.00,,---,0.00,VWS V14.01,2013-05-20 01:11:00,
2013-05-19 20:16:00,89.6,39.1,29.47,SSW,210,3.0,10.0,17,0.00,,---,0.00,VWS V14.01,2013-05-20 01:16:00,
2013-05-19 20:21:00,88.6,39.7,29.47,SW,218,4.0,10.0,18,0.00,,---,0.00,VWS V14.01,2013-05-20 01:21:00,
2013-05-19 20:26:00,87.4,40.1,29.47,SSW,205,5.0,10.0,19,0.00,,---,0.00,VWS V14.01,2013-05-20 01:26:00,
2013-05-19 20:31:00,86.4,41.9,29.47,SSW,195,4.0,5.0,21,0.00,,---,0.00,VWS V14.01,2013-05-20 01:31:00,
2013-05-19 20:37:00,85.0,41.9,29.48,South,187,4.0,6.0,22,0.00,,---,0.00,VWS V14.01,2013-05-20 01:37:00,
2013-05-19 20:42:00,83.8,40.9,29.48,SSW,198,4.0,6.0,22,0.00,,---,0.00,VWS V14.01,2013-05-20 01:42:00,
2013-05-19 20:47:00,83.3,40.5,29.48,SSW,193,3.0,6.0,22,0.00,,---,0.00,VWS V14.01,2013-05-20 01:47:00,
2013-05-19 20:52:00,82.7,40.0,29.48,SSW,211,4.0,6.0,22,0.00,,---,0.00,VWS V14.01,2013-05-20 01:52:00,
2013-05-19 20:57:00,82.5,39.9,29.48,SSW,211,5.0,6.0,22,0.00,,---,0.00,VWS V14.01,2013-05-20 01:57:00,
2013-05-19 21:02:00,82.1,40.7,29.49,South,190,4.0,7.0,23,0.00,,---,0.00,VWS V14.01,2013-05-20 02:02:00,
2013-05-19 21:07:00,81.7,40.3,29.49,SSW,198,3.0,7.0,23,0.00,,---,0.00,VWS V14.01,2013-05-20 02:07:00,
2013-05-19 21:12:00,81.2,39.9,29.49,South,191,3.0,7.0,23,0.00,,---,0.00,VWS V14.01,2013-05-20 02:12:00,
2013-05-19 21:17:00,81.1,38.7,29.49,SSW,207,3.0,7.0,22,0.00,,---,0.00,VWS V14.01,2013-05-20 02:17:00,
2013-05-19 21:22:00,80.8,38.5,29.49,SSW,195,5.0,7.0,22,0.00,,---,0.00,VWS V14.01,2013-05-20 02:22:00,
2013-05-19 21:27:00,80.4,38.1,29.50,SSW,194,4.0,7.0,22,0.00,,---,0.00,VWS V14.01,2013-05-20 02:27:00,
2013-05-19 21:32:00,80.1,39.0,29.50,SSW,207,2.0,4.0,23,0.00,,---,0.00,VWS V14.01,2013-05-20 02:32:00,
2013-05-19 21:37:00,79.8,39.8,29.50,SSW,193,3.0,4.0,24,0.00,,---,0.00,VWS V14.01,2013-05-20 02:37:00,
2013-05-19 21:43:00,79.7,39.8,29.50,SW,221,4.0,5.0,24,0.00,,---,0.00,VWS V14.01,2013-05-20 02:43:00,
2013-05-19 21:48:00,79.4,40.5,29.50,SSW,212,4.0,5.0,25,0.00,,---,0.00,VWS V14.01,2013-05-20 02:48:00,
2013-05-19 21:53:00,78.9,40.1,29.50,SSW,205,2.0,5.0,25,0.00,,---,0.00,VWS V14.01,2013-05-20 02:53:00,
2013-05-19 21:58:00,78.5,39.8,29.50,SW,217,5.0,5.0,25,0.00,,---,0.00,VWS V14.01,2013-05-20 02:58:00,
2013-05-19 22:03:00,78.5,39.8,29.50,WSW,245,2.0,4.0,25,0.00,,---,0.00,VWS V14.01,2013-05-20 03:03:00,
2013-05-19 22:08:00,78.2,40.5,29.50,SW,217,2.0,4.0,26,0.00,,---,0.00,VWS V14.01,2013-05-20 03:08:00,
2013-05-19 22:13:00,77.4,42.7,29.51,WSW,250,5.0,8.0,29,0.00,,---,0.00,VWS V14.01,2013-05-20 03:13:00,
2013-05-19 22:18:00,76.2,43.4,29.51,SW,215,3.0,8.0,31,0.00,,---,0.00,VWS V14.01,2013-05-20 03:18:00,
2013-05-19 22:23:00,75.9,43.1,29.51,SW,236,3.0,8.0,31,0.00,,---,0.00,VWS V14.01,2013-05-20 03:23:00,
2013-05-19 22:28:00,76.5,41.9,29.52,WSW,248,5.0,8.0,29,0.00,,---,0.00,VWS V14.01,2013-05-20 03:28:00,
2013-05-19 22:33:00,77.6,41.0,29.52,SW,236,5.0,7.0,27,0.00,,---,0.00,VWS V14.01,2013-05-20 03:33:00,
2013-05-19 22:38:00,78.7,40.0,29.52,WSW,256,4.0,7.0,25,0.00,,---,0.00,VWS V14.01,2013-05-20 03:38:00,
2013-05-19 22:44:00,79.7,38.7,29.52,SW,221,7.0,11.0,23,0.00,,---,0.00,VWS V14.01,2013-05-20 03:44:00,
2013-05-19 22:49:00,80.1,39.0,29.53,WSW,252,4.0,11.0,23,0.00,,---,0.00,VWS V14.01,2013-05-20 03:49:00,
2013-05-19 22:54:00,80.0,38.9,29.53,WSW,255,5.0,11.0,23,0.00,,---,0.00,VWS V14.01,2013-05-20 03:54:00,
2013-05-19 22:59:00,79.8,37.6,29.53,SSW,208,3.0,11.0,22,0.00,,---,0.00,VWS V14.01,2013-05-20 03:59:00,
2013-05-19 23:01:00,79.8,37.6,29.53,WSW,255,7.0,7.0,22,0.00,,---,0.00,VWS V14.01,2013-05-20 04:01:00,
2013-05-19 23:02:00,80.0,37.8,29.53,West,262,6.0,8.0,22,0.00,,---,0.00,VWS V14.01,2013-05-20 04:02:00,
2013-05-19 23:03:00,80.1,36.7,29.53,WSW,247,10.0,10.0,21,0.00,,---,0.00,VWS V14.01,2013-05-20 04:03:00,
2013-05-19 23:08:00,81.1,36.3,29.53,West,266,7.0,12.0,20,0.00,,---,0.00,VWS V14.01,2013-05-20 04:08:00,
2013-05-19 23:13:00,81.7,36.8,29.53,West,266,5.0,12.0,20,0.00,,---,0.00,VWS V14.01,2013-05-20 04:13:00,
2013-05-19 23:18:00,81.9,35.6,29.53,West,268,6.0,12.0,19,0.00,,---,0.00,VWS V14.01,2013-05-20 04:18:00,
2013-05-19 23:23:00,81.9,35.6,29.53,WSW,257,8.0,12.0,19,0.00,,---,0.00,VWS V14.01,2013-05-20 04:23:00,
2013-05-19 23:28:00,81.9,35.6,29.54,WSW,251,7.0,12.0,19,0.00,,---,0.00,VWS V14.01,2013-05-20 04:28:00,
2013-05-19 23:33:00,81.9,35.6,29.53,West,266,6.0,9.0,19,0.00,,---,0.00,VWS V14.01,2013-05-20 04:33:00,
2013-05-19 23:38:00,82.1,34.4,29.53,WSW,253,8.0,10.0,18,0.00,,---,0.00,VWS V14.01,2013-05-20 04:38:00,
2013-05-19 23:43:00,82.3,34.6,29.53,West,265,5.0,10.0,18,0.00,,---,0.00,VWS V14.01,2013-05-20 04:43:00,
2013-05-19 23:48:00,82.1,34.4,29.53,WSW,243,8.0,14.0,18,0.00,,---,0.00,VWS V14.01,2013-05-20 04:48:00,
2013-05-19 23:54:00,81.8,34.2,29.53,WSW,253,8.0,14.0,18,0.00,,---,0.00,VWS V14.01,2013-05-20 04:54:00,
2013-05-19 23:59:00,81.5,35.3,29.53,WSW,253,8.0,14.0,19,0.00,,---,0.00,VWS V14.01,2013-05-20 04:59:00,